This is the latest recevied weather packets stored in our database for station/object K7KAR-2. If no packets are shown the sender has not sent any weather packets the latest 10 day(s).
| Time | Temp. | Humidity | Pressure | Rain* | Wind** | Luminosity | Snow |
|---|---|---|---|---|---|---|---|
| 1777688653 | 17.22° C | 10% | 1015.5 hPa | 0 mm | - | 1 W/m² | - |
| 1777688350 | 17.22° C | 10% | 1015.5 hPa | 0 mm | - | 3 W/m² | - |
| 1777688047 | 17.78° C | 10% | 1015.3 hPa | 0 mm | - | 7 W/m² | - |
| 1777687745 | 17.78° C | 10% | 1015.1 hPa | 0 mm | - | 9 W/m² | - |
| 1777687442 | 18.33° C | 10% | 1015.4 hPa | 0 mm | - | 13 W/m² | - |
| 1777687138 | 18.89° C | 10% | 1015.4 hPa | 0 mm | - | 17 W/m² | - |
| 1777686836 | 19.44° C | 10% | 1015.5 hPa | 0 mm | - | 20 W/m² | - |
| 1777686533 | 19.44° C | 10% | 1015.3 hPa | 0 mm | - | 23 W/m² | - |
| 1777686230 | 19.44° C | 10% | 1015.6 hPa | 0 mm | - | 26 W/m² | - |
| 1777685926 | 20° C | 10% | 1015.6 hPa | 0 mm | - | 29 W/m² | - |
| 1777685622 | 20° C | 10% | 1015.6 hPa | 0 mm | - | 32 W/m² | - |
| 1777685318 | 20° C | 10% | 1015.5 hPa | 0 mm | - | 34 W/m² | - |
| 1777685017 | 20° C | 10% | 1015.1 hPa | 0 mm | - | 36 W/m² | - |
| 1777684714 | 20° C | 10% | 1015.4 hPa | 0 mm | - | 38 W/m² | - |
| 1777684409 | 20° C | 10% | 1015.5 hPa | 0 mm | - | 40 W/m² | - |
| 1777684107 | 20.56° C | 10% | 1015.5 hPa | 0 mm | - | 42 W/m² | - |
| 1777683803 | 20.56° C | 10% | 1015.4 hPa | 0 mm | - | 45 W/m² | - |
| 1777683500 | 20.56° C | 10% | 1015.6 hPa | 0 mm | - | 46 W/m² | - |
| 1777683198 | 21.11° C | 10% | 1015.6 hPa | 0 mm | - | 48 W/m² | - |
| 1777682895 | 21.11° C | 10% | 1015.6 hPa | 0 mm | - | 50 W/m² | - |
| 1777682591 | 21.11° C | 10% | 1015.6 hPa | 0 mm | - | 55 W/m² | - |
| 1777682289 | 21.67° C | 10% | 1015.8 hPa | 0 mm | - | 57 W/m² | - |
| 1777681986 | 21.67° C | 10% | 1015.6 hPa | 0 mm | - | 60 W/m² | - |
| 1777681682 | 22.22° C | 10% | 1015.6 hPa | 0 mm | - | 63 W/m² | - |
| 1777681379 | 21.67° C | 10% | 1015.8 hPa | 0 mm | - | 66 W/m² | - |
* Rain latest hour (hover to see other rain measurements)
** Current wind speed in m/s (hover to see current wind gust speed)